Orbital Elements
by Kenji Muraoka,
from 47 observations 1978 Nov. 8 to 1995 Oct. 29,
mean residual is +/- 1.44 arc seconds.
Epoch = 1995 July 22.0 TT JDT = 2449920.5
T = 1995 July 28.79942 +/- 0.00301 (m.e.) TT
Peri. = 61.67948 +/- 0.00394
Node = 141.49755 +/- 0.00100 (2000.0)
Incl. = 9.22520 +/- 0.00017
q = 1.0653123 +/- 0.0000050 AU
e = 0.6563638 +/- 0.0000010
a = 3.1001164 +/- 0.0000056 AU
n = 0.18056646 +/- 0.00000049
P = 5.458 +/- 0.0000147 years
A1 = +1.212 +/- 0.194
A2 = +0.05644 +/- 0.00136
|